Regional Weather Roundup
Issued by NWS

Home | Current Version | Previous Version | Text Only | Print | Product List | Glossary Off
Versions: 1 2 3 4 5 6 7 8 9 10 11 12 13 14 15 16 17 18 19 20 21 22 23 24 25 26 27 28 29 30 31 32 33 34 35 36 37 38 39 40 41 42 43 44 45 46 47 48 49 50

000
ASUS43 KLOT 040908
RWRIL

ILLINOIS REGIONAL WEATHER ROUNDUP
NATIONAL WEATHER SERVICE CHICAGO/ROMEOVILLE IL
400 AM CDT MON MAY 04 2015

NOTE: "FAIR" INDICATES FEW OR NO CLOUDS BELOW 12,000 FEET WITH NO
SIGNIFICANT WEATHER AND/OR OBSTRUCTIONS TO VISIBILITY.

* THESE STATIONS ARE NOT UNDER NWS QUALITY CONTROL. THEY ALSO MAY NOT
  REPORT WEATHER SUCH AS PRECIPITATION OR FOG.

ILZ001-002-007-009-015-016-024-041000-
NORTHWEST ILLINOIS

CITY           SKY/WX    TMP DP  RH WIND       PRES   REMARKS
MOLINE         CLOUDY    60  57  89 SE8       29.94F
STERLING*      CLOUDY    59  55  88 S6        29.95S
SAVANNA*       LGT RAIN  59  57  92 CALM      29.91F
$$

ILZ003-004-008-010-011-017-018-041000-
NORTH CENTRAL ILLINOIS

CITY           SKY/WX    TMP DP  RH WIND       PRES   REMARKS
ROCKFORD       CLOUDY    61  55  81 SW3       29.91F
FREEPORT*      CLOUDY    57  55  92 CALM      29.94R
ROCHELLE*      RAIN      59  56  90 N5        29.92F
DE KALB*       LGT RAIN  60  53  77 CALM      29.93F
PERU*          CLOUDY    62  55  79 E3        29.98S
$$

ILZ005-006-012>014-019>023-041000-
NORTHEAST ILLINOIS

CITY           SKY/WX    TMP DP  RH WIND       PRES   REMARKS
CHICAGO-OHARE  CLOUDY    62  52  69 W6        29.93S
CHICAGO-MIDWAY CLOUDY    66  51  58 SW12      29.94S
AURORA         CLOUDY    60  54  80 W6        29.95F
LANSING*       CLOUDY    66  45  46 SW15G23   29.96R
JOLIET*        LGT RAIN  65  56  72 W3        29.97R
WAUKEGAN       CLOUDY    62  55  77 CALM      29.89F
DUPAGE AIRPORT CLOUDY    61  55  81 W3        29.93F
KANKAKEE*      CLOUDY    66  49  54 W14G26    30.00R
WHEELING       CLOUDY    64  53  67 W7        29.94S
MORRIS*        CLOUDY    62  56  81 NW3       29.95R
ROMEOVILLE*    CLOUDY    60  53  76 W9        29.97R
NORTHERLY ISL    N/A     66  49  54 SW6         N/A
$$

LMZ740>746-041000-
SOUTHERN LAKE MICHIGAN

STATION/POSITION SKY/WX   TEMP    WIND        PRES    VSBY  WAVE
                          AIR SEA DIR/SP/G                  HT/PER
                          (F)     (DEG/KT/KT) (MB)    (MI)  (FT/S)
HARRISON CRIB              67     220/ 27/ 32   N/A
BURNHAM HARBOR             65     240/  8/ 12   N/A
CALUMET HARBOR             68     200/ 11/ 18   N/A
BURNS HARBOR               66     190/ 15/ 21 1013.9F
MICHIGAN CITY              67     170/ 18/ 24   N/A
MICHIGAN CITY 6N           62 50  210/ 14/ 17   N/A           1/ 2
ST. JOSEPH                 59 47  240/ 16/ 17   N/A           3/ 3
$$

ILZ025>027-034>036-040-047-049-050-058-095>099-041000-
WEST-CENTRAL ILLINOIS

CITY           SKY/WX    TMP DP  RH WIND       PRES   REMARKS
QUINCY         CLOUDY    67  54  63 SW12      29.95R
GALESBURG*     CLOUDY    60  57  89 E9        29.99R
MACOMB*        TSTM      63  58  85 N18G29    30.00R
JACKSONVILLE*  CLOUDY    69  55  59 SW9       29.96R
PITTSFIELD*    CLOUDY    69  55  59 SW9       29.99R
$$

ILZ028>032-037-038-041>044-048-051>054-059>061-041000-
CENTRAL ILLINOIS

CITY           SKY/WX    TMP DP  RH WIND       PRES   REMARKS
PONTIAC        TSTM      67  55  65 NW10      30.00S
BLOOMINGTON    CLOUDY    68  53  58 SW16      29.98S
DECATUR        CLOUDY    67  51  56 S13       29.99F
PEORIA         LGT RAIN  68  53  58 N5        29.98R
LACON*         CLOUDY    62  56  81 CALM      29.98S
LINCOLN*       CLOUDY    67  52  59 S8        29.95S
SPRINGFIELD    CLOUDY    67  52  58 S13       29.97R
TAYLORVILLE    CLOUDY    64  50  59 S14G20    29.99S
$$

ILZ033-039-045-046-055>057-062-063-041000-
EAST-CENTRAL ILLINOIS

CITY           SKY/WX    TMP DP  RH WIND       PRES   REMARKS
CHAMPAIGN      CLOUDY    63  51  65 S14       30.00F
DANVILLE*      MOCLDY    64  47  53 SW13      29.98F
RANTOUL*       CLOUDY    65  52  62 S8        29.99F
MATTOON        LGT RAIN  62  50  64 S12       30.01F
PARIS*         MOCLDY    64  49  58 S13       30.04F
$$

ILZ079-100>102-041000-
SOUTHWEST ILLINOIS

CITY           SKY/WX    TMP DP  RH WIND       PRES   REMARKS
ALTON          CLOUDY    67  49  53 S8        30.01R
BELLEVILLE     CLOUDY    63  53  70 SE2       30.01S
CAHOKIA*       CLOUDY    65  54  67 S6        30.00S
SPARTA*        MOCLDY    64  50  59 S7        30.05S
$$

ILZ064>066-069>071-074>076-080>082-084>086-088>090-092>094-041000-
SOUTH-CENTRAL ILLINOIS

CITY           SKY/WX    TMP DP  RH WIND       PRES   REMARKS
CARBONDALE     PTCLDY    58  51  78 SE5       30.06S
CAIRO*         PTCLDY    66  51  59 S6        30.07S
EFFINGHAM*     CLOUDY    63  46  53 SE6       30.05S
MARION         MOCLDY    64  52  63 S6        30.07S
MT. VERNON     MOCLDY   N/A N/A N/A S7        30.06S
CENTRALIA*     MOCLDY    63  47  55 S8        30.04S
SALEM*         MOCLDY    68  47  46 S12       30.04S
METROPOLIS*    MOCLDY    65  51  62 CALM      30.08R
$$

ILZ067-068-072-073-078-083-087-091-041000-
SOUTHEAST ILLINOIS

CITY           SKY/WX    TMP DP  RH WIND       PRES   REMARKS
LAWRENCEVILLE  PTCLDY    58  50  75 S5        30.07S
FLORA*         PTCLDY    63  48  59 S9        30.05S
FAIRFIELD*     CLOUDY    63  51  64 S3        30.06S
HARRISBURG*    CLOUDY    62  51  67 CALM      30.08F
ROBINSON*      PTCLDY    58  49  72 S7        30.07S
CARMI*         MOCLDY    60  49  67 S6        30.07S
$$

ABBREVIATIONS USED IN REMARKS
   TC - TEMPERATURE IN CELSIUS
  WCI - WIND CHILL INDEX
   HX - HEAT INDEX
  VSB - VISIBILITY
$$



USA.gov is the U.S. government's official web portal to all federal, state and local government web resources and services.